{"data":{"norad_id":67668,"epoch":"2026-09-19T08:56:58.455456Z","epoch_age_seconds":166502,"freshness":"FRESH","line1":"1 67668U 26022W   26262.37289879  .00017275  00000+0  53617-3 0  9992","line2":"2 67668  97.2887 293.9422 0001145  84.8790 275.2584 15.33446148 35251","mean_motion":15.33446148,"eccentricity":0.0001145,"inclination_deg":97.2887,"raan_deg":293.9422,"arg_perigee_deg":84.879,"mean_anomaly_deg":275.2584,"bstar":0.00053617,"rev_number":3525,"period_min":93.90613435484,"perigee_km":464.75615785106,"apogee_km":466.32335982884,"semimajor_km":6843.6767588399,"source":"CELESTRAK","updated_at":"2026-09-20T09:00:43.624121Z"}}